CW1663 Weather Reports


Display with metric or nautical units.
time (UTC)temp
F
wind
direction
speed
MPH
gust
MPH
rain 1hr
in
rain 24hr
in
rain mn
in
humidity
%
barometer
mb
20260905223805 58 274 0.0 2.0 0.00 0.01 0.01 84 1025.0
20260905222805 58 286 2.0 3.0 0.00 0.01 0.01 84 1025.0
20260905221804 58 252 2.0 5.0 0.00 0.01 0.01 83 1025.2
20260905221305 58 243 2.0 3.0 0.00 0.01 0.01 83 1025.1
20260905220305 58 225 2.0 7.0 0.00 0.01 0.01 83 1025.1
20260905215804 58 248 3.0 3.0 0.00 0.01 0.01 83 1025.1
20260905212804 58 243 3.0 6.0 0.00 0.01 0.01 82 1025.1
20260905211304 59 243 2.0 3.0 0.00 0.01 0.01 82 1025.1
20260905210804 59 243 2.0 3.0 0.00 0.01 0.01 82 1025.1
20260905205306 59 247 1.0 3.0 0.00 0.01 0.01 81 1025.1
20260905204804 59 257 1.0 3.0 0.00 0.01 0.01 81 1025.1
20260905203804 59 253 2.0 3.0 0.00 0.01 0.01 81 1024.9
20260905202306 59 235 1.0 3.0 0.00 0.01 0.01 80 1024.9
20260905200804 60 217 2.0 3.0 0.00 0.01 0.01 80 1024.9
20260905195805 60 244 3.0 5.0 0.00 0.01 0.01 80 1024.8
20260905195306 60 239 3.0 6.0 0.00 0.01 0.01 79 1024.9
20260905193804 60 244 2.0 5.0 0.00 0.01 0.01 78 1024.9
20260905193304 60 230 2.0 3.0 0.00 0.01 0.01 78 1024.9
20260905192804 60 234 3.0 5.0 0.00 0.01 0.01 77 1024.9
20260905192306 61 238 3.0 6.0 0.00 0.01 0.01 77 1024.8
20260905191805 61 250 2.0 5.0 0.00 0.01 0.01 77 1024.8
20260905191304 61 235 3.0 6.0 0.00 0.01 0.01 76 1024.7
20260905190805 61 236 2.0 6.0 0.00 0.01 0.01 76 1024.7
20260905185805 62 185 2.0 5.0 0.00 0.01 0.01 75 1024.5
20260905184304 62 246 2.0 5.0 0.00 0.01 0.01 74 1024.4
20260905182306 63 228 3.0 5.0 0.00 0.01 0.01 72 1024.5
20260905181804 64 199 2.0 5.0 0.00 0.01 0.01 72 1024.5
20260905180304 65 220 2.0 7.0 0.00 0.01 0.01 70 1024.5
20260905175804 65 242 4.0 8.0 0.00 0.01 0.01 69 1024.5
20260905174304 66 196 2.0 3.0 0.00 0.01 0.01 68 1024.5
20260905173304 66 204 4.0 9.0 0.00 0.01 0.01 67 1024.4
20260905172305 67 200 3.0 9.0 0.00 0.01 0.01 66 1024.4
20260905171804 67 194 4.0 9.0 0.00 0.01 0.01 66 1024.4
20260905170804 67 238 3.0 8.0 0.00 0.01 0.01 67 1024.5
20260905165804 68 209 5.0 9.0 0.00 0.01 0.01 66 1024.4
20260905165306 68 242 4.0 9.0 0.00 0.01 0.01 65 1024.5
20260905163804 68 233 5.0 12.0 0.00 0.01 0.01 64 1024.5
20260905163304 68 235 4.0 12.0 0.00 0.01 0.01 64 1024.5
20260905162805 68 227 3.0 9.0 0.00 0.01 0.01 64 1024.5
20260905155805 68 215 3.0 12.0 0.00 0.01 0.01 64 1024.5
20260905155306 68 237 7.0 15.0 0.00 0.01 0.01 63 1024.5
20260905154804 69 226 5.0 12.0 0.00 0.01 0.01 63 1024.5
20260905153305 69 210 5.0 12.0 0.00 0.01 0.01 61 1024.5
20260905152805 69 201 5.0 12.0 0.00 0.01 0.01 62 1024.5
20260905150804 69 186 4.0 12.0 0.00 0.01 0.01 62 1024.4
20260905150304 70 234 4.0 12.0 0.00 0.01 0.01 61 1024.5
20260905145804 70 210 6.0 10.0 0.00 0.01 0.01 60 1024.5
20260905144804 70 202 5.0 12.0 0.00 0.01 0.01 60 1024.4
20260905143304 70 199 5.0 13.0 0.00 0.01 0.01 60 1024.2
20260905142306 70 214 5.0 15.0 0.00 0.01 0.01 60 1024.2
20260905141804 70 207 6.0 12.0 0.00 0.01 0.01 60 1024.2
20260905141304 70 217 7.0 13.0 0.00 0.01 0.01 58 1024.2
20260905140305 70 250 2.0 6.0 0.00 0.01 0.01 54 1024.2
20260905134304 70 239 2.0 7.0 0.00 0.01 0.01 56 1024.2
20260905133804 70 222 4.0 12.0 0.00 0.01 0.01 56 1024.2
20260905133305 70 268 5.0 10.0 0.00 0.01 0.01 56 1024.2
20260905132804 70 239 3.0 7.0 0.00 0.01 0.01 57 1024.2
20260905130305 69 170 5.0 8.0 0.00 0.02 0.01 58 1024.3
20260905125306 69 220 5.0 9.0 0.00 0.02 0.01 57 1024.2
20260905124805 69 231 3.0 10.0 0.00 0.02 0.01 58 1024.2
20260905121805 68 274 4.0 7.0 0.00 0.02 0.01 59 1024.0
20260905121304 68 24 1.0 5.0 0.00 0.02 0.01 60 1023.9
20260905120304 67 282 2.0 9.0 0.00 0.02 0.01 61 1023.7
20260905115805 67 216 2.0 12.0 0.00 0.02 0.01 60 1023.7
20260905114304 64 12 2.0 3.0 0.00 0.02 0.01 69 1023.7
20260905113804 64 270 5.0 3.0 0.00 0.02 0.01 69 1023.7
20260905113305 64 270 5.0 3.0 0.00 0.02 0.01 69 1023.7
20260905112306 64 270 5.0 3.0 0.00 0.02 0.01 69 1023.7
20260905111804 64 270 5.0 3.0 0.00 0.02 0.01 69 1023.7
20260905110805 64 270 5.0 3.0 0.00 0.02 0.01 69 1023.7
20260905105804 64 270 5.0 3.0 0.00 0.02 0.01 69 1023.7
20260905105306 64 270 5.0 3.0 0.00 0.02 0.01 69 1023.7
20260905104304 64 270 5.0 3.0 0.00 0.02 0.01 69 1023.7
20260905103304 64 270 5.0 3.0 0.00 0.02 0.01 69 1023.7
20260905102804 64 270 5.0 3.0 0.00 0.02 0.01 69 1023.7
20260905102306 64 270 5.0 3.0 0.00 0.02 0.01 69 1023.7
20260905101804 64 270 5.0 3.0 0.00 0.02 0.01 69 1023.7
20260905101304 64 270 5.0 8.0 0.00 0.02 0.01 69 1023.7
20260905100804 64 281 3.0 10.0 0.00 0.02 0.01 69 1023.7
20260905100304 64 317 6.0 10.0 0.00 0.02 0.01 69 1023.5
20260905095805 64 281 2.0 7.0 0.00 0.02 0.01 71 1023.5
20260905095306 63 303 3.0 10.0 0.00 0.02 0.01 71 1023.5
20260905094804 63 314 6.0 12.0 0.00 0.02 0.01 71 1023.5
20260905093804 63 301 6.0 10.0 0.00 0.02 0.01 73 1023.4
20260905090304 61 283 3.0 8.0 0.00 0.02 0.01 78 1023.2
20260905085306 61 306 5.0 8.0 0.00 0.02 0.01 78 1023.2
20260905084804 60 266 4.0 10.0 0.00 0.02 0.01 79 1023.2
20260905083804 60 280 7.0 12.0 0.00 0.02 0.01 79 1023.1
20260905083305 60 279 3.0 12.0 0.00 0.02 0.01 80 1023.1
20260905075306 58 249 5.0 9.0 0.00 0.02 0.01 86 1022.8
20260905074805 57 295 6.0 13.0 0.00 0.02 0.01 87 1022.8
20260905073804 56 284 6.0 10.0 0.00 0.02 0.01 88 1022.7
20260905070304 55 243 5.0 9.0 0.00 0.02 0.01 90 1022.4
20260905065306 55 260 3.0 6.0 0.00 0.02 0.01 91 1022.4
20260905064804 54 264 3.0 6.0 0.00 0.02 0.01 91 1022.4
20260905064304 54 265 3.0 7.0 0.00 0.02 0.01 91 1022.4
20260905063804 54 266 3.0 8.0 0.00 0.02 0.01 91 1022.4
20260905063305 54 267 3.0 9.0 0.00 0.02 0.01 92 1022.1
20260905055804 53 269 4.0 8.0 0.00 0.02 0.01 92 1021.8
20260905053804 52 271 4.0 7.0 0.00 0.02 0.01 92 1021.5
20260905051306 52 249 3.0 7.0 0.00 0.02 0.01 91 1021.2
20260905050804 53 257 2.0 3.0 0.00 0.02 0.01 91 1021.2
20260905050305 53 252 2.0 5.0 0.00 0.02 0.01 91 1021.2
20260905045805 53 258 2.0 6.0 0.00 0.02 0.01 91 1021.2
20260905042804 53 259 5.0 10.0 0.00 0.02 0.01 91 1021.0
20260905042307 53 271 3.0 8.0 0.00 0.02 0.01 91 1021.0
20260905041808 53 273 3.0 7.0 0.00 0.02 0.01 91 1021.0
20260905034304 53 251 3.0 6.0 0.00 0.02 0.01 91 1020.6
20260905033804 53 263 3.0 7.0 0.00 0.02 0.01 91 1020.6
20260905033304 53 251 3.0 8.0 0.00 0.02 0.01 91 1020.5
20260905032805 53 254 2.0 6.0 0.00 0.02 0.01 91 1020.5
20260905031804 53 265 2.0 3.0 0.00 0.02 0.01 90 1020.5
20260905031304 53 252 3.0 6.0 0.00 0.02 0.01 90 1020.4
20260905030804 54 246 2.0 3.0 0.00 0.02 0.01 90 1020.4
20260905030304 54 245 2.0 3.0 0.00 0.02 0.01 90 1020.2
20260905023304 54 256 3.0 6.0 0.00 0.02 0.01 90 1019.9
20260905022804 54 265 3.0 7.0 0.00 0.02 0.01 90 1019.9
20260905022306 54 240 4.0 8.0 0.00 0.02 0.01 90 1019.8
20260905021804 54 282 4.0 10.0 0.00 0.02 0.01 90 1019.8
20260905020804 54 261 5.0 8.0 0.00 0.02 0.01 90 1019.9
20260905015804 54 254 4.0 10.0 0.00 0.02 0.01 90 1019.8
20260905014804 54 253 5.0 8.0 0.00 0.02 0.01 90 1019.7
20260905012805 54 245 4.0 8.0 0.00 0.02 0.01 89 1019.6
20260905012306 54 262 4.0 9.0 0.00 0.02 0.01 89 1019.6
20260905011804 54 261 6.0 12.0 0.00 0.02 0.01 89 1019.6
20260905010304 54 262 5.0 9.0 0.00 0.02 0.01 89 1019.6
20260905005804 55 254 5.0 9.0 0.00 0.02 0.01 89 1019.6
20260905004304 55 256 3.0 7.0 0.01 0.02 0.01 89 1019.5
20260905003304 55 251 4.0 12.0 0.01 0.02 0.01 88 1019.5
20260905001305 55 232 3.0 8.0 0.01 0.03 0.01 88 1019.5
20260905000304 55 237 3.0 9.0 0.01 0.03 0.01 88 1019.4
20260904235306 55 248 4.0 7.0 0.00 0.02 0.00 87 1019.4
20260904234304 56 235 4.0 8.0 0.00 0.02 0.00 87 1019.4
20260904233304 56 259 4.0 7.0 0.00 0.02 0.00 86 1019.4
20260904232804 56 254 3.0 8.0 0.00 0.02 0.00 86 1019.4
20260904232306 56 259 5.0 8.0 0.00 0.02 0.00 85 1019.2
20260904231804 56 261 3.0 6.0 0.00 0.02 0.00 85 1019.2
20260904230304 57 266 2.0 6.0 0.00 0.02 0.00 84 1018.9
20260904225805 57 255 4.0 8.0 0.00 0.02 0.05 84 1018.9